Index of /20260430/WXO-DD/model_gdps/15km/12/192
Name Last modified Size Description
Parent Directory -
20260430T12Z_MSC_GDPS_AbsoluteVorticity_IsbL-0200_LatLon0.15_PT192H.grib2 2026-04-30 16:32 1.2M
20260430T12Z_MSC_GDPS_AbsoluteVorticity_IsbL-0250_LatLon0.15_PT192H.grib2 2026-04-30 16:32 1.3M
20260430T12Z_MSC_GDPS_AbsoluteVorticity_IsbL-0500_LatLon0.15_PT192H.grib2 2026-04-30 16:32 1.2M
20260430T12Z_MSC_GDPS_AbsoluteVorticity_IsbL-0700_LatLon0.15_PT192H.grib2 2026-04-30 16:32 1.3M
20260430T12Z_MSC_GDPS_AbsoluteVorticity_IsbL-0850_LatLon0.15_PT192H.grib2 2026-04-30 16:32 1.6M
20260430T12Z_MSC_GDPS_AirTemp-Max_AGL-2m_LatLon0.15_PT192H.grib2 2026-04-30 16:32 743K
20260430T12Z_MSC_GDPS_AirTemp-Min_AGL-2m_LatLon0.15_PT192H.grib2 2026-04-30 16:32 789K
20260430T12Z_MSC_GDPS_AirTemp_AGL-120m_LatLon0.15_PT192H.grib2 2026-04-30 16:32 906K
20260430T12Z_MSC_GDPS_AirTemp_AGL-2m_LatLon0.15_PT192H.grib2 2026-04-30 16:32 1.0M
20260430T12Z_MSC_GDPS_AirTemp_AGL-40m_LatLon0.15_PT192H.grib2 2026-04-30 16:32 806K
20260430T12Z_MSC_GDPS_AirTemp_AGL-80m_LatLon0.15_PT192H.grib2 2026-04-30 16:32 795K
20260430T12Z_MSC_GDPS_AirTemp_IsbL-0001_LatLon0.15_PT192H.grib2 2026-04-30 16:32 658K
20260430T12Z_MSC_GDPS_AirTemp_IsbL-0005_LatLon0.15_PT192H.grib2 2026-04-30 16:32 694K
20260430T12Z_MSC_GDPS_AirTemp_IsbL-0010_LatLon0.15_PT192H.grib2 2026-04-30 16:32 694K
20260430T12Z_MSC_GDPS_AirTemp_IsbL-0020_LatLon0.15_PT192H.grib2 2026-04-30 16:32 786K
20260430T12Z_MSC_GDPS_AirTemp_IsbL-0030_LatLon0.15_PT192H.grib2 2026-04-30 16:32 833K
20260430T12Z_MSC_GDPS_AirTemp_IsbL-0050_LatLon0.15_PT192H.grib2 2026-04-30 16:32 797K
20260430T12Z_MSC_GDPS_AirTemp_IsbL-0100_LatLon0.15_PT192H.grib2 2026-04-30 16:32 964K
20260430T12Z_MSC_GDPS_AirTemp_IsbL-0150_LatLon0.15_PT192H.grib2 2026-04-30 16:32 1.0M
20260430T12Z_MSC_GDPS_AirTemp_IsbL-0175_LatLon0.15_PT192H.grib2 2026-04-30 16:32 954K
20260430T12Z_MSC_GDPS_AirTemp_IsbL-0200_LatLon0.15_PT192H.grib2 2026-04-30 16:32 967K
20260430T12Z_MSC_GDPS_AirTemp_IsbL-0225_LatLon0.15_PT192H.grib2 2026-04-30 16:32 971K
20260430T12Z_MSC_GDPS_AirTemp_IsbL-0250_LatLon0.15_PT192H.grib2 2026-04-30 16:32 1.0M
20260430T12Z_MSC_GDPS_AirTemp_IsbL-0275_LatLon0.15_PT192H.grib2 2026-04-30 16:32 1.0M
20260430T12Z_MSC_GDPS_AirTemp_IsbL-0300_LatLon0.15_PT192H.grib2 2026-04-30 16:32 1.0M
20260430T12Z_MSC_GDPS_AirTemp_IsbL-0350_LatLon0.15_PT192H.grib2 2026-04-30 16:32 930K
20260430T12Z_MSC_GDPS_AirTemp_IsbL-0400_LatLon0.15_PT192H.grib2 2026-04-30 16:32 945K
20260430T12Z_MSC_GDPS_AirTemp_IsbL-0450_LatLon0.15_PT192H.grib2 2026-04-30 16:32 969K
20260430T12Z_MSC_GDPS_AirTemp_IsbL-0500_LatLon0.15_PT192H.grib2 2026-04-30 16:32 1.0M
20260430T12Z_MSC_GDPS_AirTemp_IsbL-0550_LatLon0.15_PT192H.grib2 2026-04-30 16:32 1.0M
20260430T12Z_MSC_GDPS_AirTemp_IsbL-0600_LatLon0.15_PT192H.grib2 2026-04-30 16:32 901K
20260430T12Z_MSC_GDPS_AirTemp_IsbL-0650_LatLon0.15_PT192H.grib2 2026-04-30 16:32 929K
20260430T12Z_MSC_GDPS_AirTemp_IsbL-0700_LatLon0.15_PT192H.grib2 2026-04-30 16:32 962K
20260430T12Z_MSC_GDPS_AirTemp_IsbL-0750_LatLon0.15_PT192H.grib2 2026-04-30 16:32 1.0M
20260430T12Z_MSC_GDPS_AirTemp_IsbL-0800_LatLon0.15_PT192H.grib2 2026-04-30 16:32 1.1M
20260430T12Z_MSC_GDPS_AirTemp_IsbL-0850_LatLon0.15_PT192H.grib2 2026-04-30 16:32 1.1M
20260430T12Z_MSC_GDPS_AirTemp_IsbL-0875_LatLon0.15_PT192H.grib2 2026-04-30 16:32 1.2M
20260430T12Z_MSC_GDPS_AirTemp_IsbL-0900_LatLon0.15_PT192H.grib2 2026-04-30 16:32 1.2M
20260430T12Z_MSC_GDPS_AirTemp_IsbL-0925_LatLon0.15_PT192H.grib2 2026-04-30 16:32 1.1M
20260430T12Z_MSC_GDPS_AirTemp_IsbL-0950_LatLon0.15_PT192H.grib2 2026-04-30 16:32 1.1M
20260430T12Z_MSC_GDPS_AirTemp_IsbL-0970_LatLon0.15_PT192H.grib2 2026-04-30 16:32 1.2M
20260430T12Z_MSC_GDPS_AirTemp_IsbL-0985_LatLon0.15_PT192H.grib2 2026-04-30 16:32 1.1M
20260430T12Z_MSC_GDPS_AirTemp_IsbL-1000_LatLon0.15_PT192H.grib2 2026-04-30 16:32 902K
20260430T12Z_MSC_GDPS_AirTemp_IsbL-1015_LatLon0.15_PT192H.grib2 2026-04-30 16:32 863K
20260430T12Z_MSC_GDPS_Albedo_Sfc_LatLon0.15_PT192H.grib2 2026-04-30 16:32 239K
20260430T12Z_MSC_GDPS_CAPE_Sfc_LatLon0.15_PT192H.grib2 2026-04-30 16:32 4.1M
20260430T12Z_MSC_GDPS_CIN_Sfc_LatLon0.15_PT192H.grib2 2026-04-30 16:32 3.0M
20260430T12Z_MSC_GDPS_CloudWater_EAtm_LatLon0.15_PT192H.grib2 2026-04-30 16:32 543K
20260430T12Z_MSC_GDPS_ConvectivePrecip-Accum_Sfc_LatLon0.15_PT192H.grib2 2026-04-30 16:32 3.9M
20260430T12Z_MSC_GDPS_DewPointDepression_AGL-2m_LatLon0.15_PT192H.grib2 2026-04-30 16:32 761K
20260430T12Z_MSC_GDPS_DewPointDepression_IsbL-0010_LatLon0.15_PT192H.grib2 2026-04-30 16:32 68K
20260430T12Z_MSC_GDPS_DewPointDepression_IsbL-0020_LatLon0.15_PT192H.grib2 2026-04-30 16:32 67K
20260430T12Z_MSC_GDPS_DewPointDepression_IsbL-0030_LatLon0.15_PT192H.grib2 2026-04-30 16:32 86K
20260430T12Z_MSC_GDPS_DewPointDepression_IsbL-0050_LatLon0.15_PT192H.grib2 2026-04-30 16:32 379K
20260430T12Z_MSC_GDPS_DewPointDepression_IsbL-0100_LatLon0.15_PT192H.grib2 2026-04-30 16:32 395K
20260430T12Z_MSC_GDPS_DewPointDepression_IsbL-0150_LatLon0.15_PT192H.grib2 2026-04-30 16:32 488K
20260430T12Z_MSC_GDPS_DewPointDepression_IsbL-0175_LatLon0.15_PT192H.grib2 2026-04-30 16:32 586K
20260430T12Z_MSC_GDPS_DewPointDepression_IsbL-0200_LatLon0.15_PT192H.grib2 2026-04-30 16:32 685K
20260430T12Z_MSC_GDPS_DewPointDepression_IsbL-0225_LatLon0.15_PT192H.grib2 2026-04-30 16:32 771K
20260430T12Z_MSC_GDPS_DewPointDepression_IsbL-0250_LatLon0.15_PT192H.grib2 2026-04-30 16:32 868K
20260430T12Z_MSC_GDPS_DewPointDepression_IsbL-0275_LatLon0.15_PT192H.grib2 2026-04-30 16:32 896K
20260430T12Z_MSC_GDPS_DewPointDepression_IsbL-0300_LatLon0.15_PT192H.grib2 2026-04-30 16:32 938K
20260430T12Z_MSC_GDPS_DewPointDepression_IsbL-0350_LatLon0.15_PT192H.grib2 2026-04-30 16:32 964K
20260430T12Z_MSC_GDPS_DewPointDepression_IsbL-0400_LatLon0.15_PT192H.grib2 2026-04-30 16:32 1.0M
20260430T12Z_MSC_GDPS_DewPointDepression_IsbL-0450_LatLon0.15_PT192H.grib2 2026-04-30 16:32 1.0M
20260430T12Z_MSC_GDPS_DewPointDepression_IsbL-0500_LatLon0.15_PT192H.grib2 2026-04-30 16:32 1.0M
20260430T12Z_MSC_GDPS_DewPointDepression_IsbL-0550_LatLon0.15_PT192H.grib2 2026-04-30 16:32 1.0M
20260430T12Z_MSC_GDPS_DewPointDepression_IsbL-0600_LatLon0.15_PT192H.grib2 2026-04-30 16:32 1.1M
20260430T12Z_MSC_GDPS_DewPointDepression_IsbL-0650_LatLon0.15_PT192H.grib2 2026-04-30 16:32 1.1M
20260430T12Z_MSC_GDPS_DewPointDepression_IsbL-0700_LatLon0.15_PT192H.grib2 2026-04-30 16:32 1.1M
20260430T12Z_MSC_GDPS_DewPointDepression_IsbL-0750_LatLon0.15_PT192H.grib2 2026-04-30 16:32 1.1M
20260430T12Z_MSC_GDPS_DewPointDepression_IsbL-0800_LatLon0.15_PT192H.grib2 2026-04-30 16:32 1.2M
20260430T12Z_MSC_GDPS_DewPointDepression_IsbL-0850_LatLon0.15_PT192H.grib2 2026-04-30 16:32 1.2M
20260430T12Z_MSC_GDPS_DewPointDepression_IsbL-0875_LatLon0.15_PT192H.grib2 2026-04-30 16:32 1.1M
20260430T12Z_MSC_GDPS_DewPointDepression_IsbL-0900_LatLon0.15_PT192H.grib2 2026-04-30 16:32 1.1M
20260430T12Z_MSC_GDPS_DewPointDepression_IsbL-0925_LatLon0.15_PT192H.grib2 2026-04-30 16:32 1.0M
20260430T12Z_MSC_GDPS_DewPointDepression_IsbL-0950_LatLon0.15_PT192H.grib2 2026-04-30 16:32 1.0M
20260430T12Z_MSC_GDPS_DewPointDepression_IsbL-0970_LatLon0.15_PT192H.grib2 2026-04-30 16:32 1.0M
20260430T12Z_MSC_GDPS_DewPointDepression_IsbL-0985_LatLon0.15_PT192H.grib2 2026-04-30 16:32 1.0M
20260430T12Z_MSC_GDPS_DewPointDepression_IsbL-1000_LatLon0.15_PT192H.grib2 2026-04-30 16:32 973K
20260430T12Z_MSC_GDPS_DewPointDepression_IsbL-1015_LatLon0.15_PT192H.grib2 2026-04-30 16:32 916K
20260430T12Z_MSC_GDPS_DewPoint_AGL-2m_LatLon0.15_PT192H.grib2 2026-04-30 16:32 613K
20260430T12Z_MSC_GDPS_DownwardLongwaveRadiationFlux-Accum_Sfc_LatLon0.15_PT192H.grib2 2026-04-30 16:32 664K
20260430T12Z_MSC_GDPS_DownwardShortwaveRadiationFlux-Accum_NTAtm_LatLon0.15_PT192H.grib2 2026-04-30 16:32 206K
20260430T12Z_MSC_GDPS_DownwardShortwaveRadiationFlux-Accum_Sfc_LatLon0.15_PT192H.grib2 2026-04-30 16:32 851K
20260430T12Z_MSC_GDPS_FreezingRain-Accum12h_Sfc_LatLon0.15_PT192H.grib2 2026-04-30 16:32 92K
20260430T12Z_MSC_GDPS_FreezingRain-Accum24h_Sfc_LatLon0.15_PT192H.grib2 2026-04-30 16:32 142K
20260430T12Z_MSC_GDPS_FreezingRain-Accum6h_Sfc_LatLon0.15_PT192H.grib2 2026-04-30 16:32 70K
20260430T12Z_MSC_GDPS_FreezingRain-Accum_Sfc_LatLon0.15_PT192H.grib2 2026-04-30 16:32 504K
20260430T12Z_MSC_GDPS_GeopotentialHeight_IsbL-0001_LatLon0.15_PT192H.grib2 2026-04-30 16:32 443K
20260430T12Z_MSC_GDPS_GeopotentialHeight_IsbL-0005_LatLon0.15_PT192H.grib2 2026-04-30 16:32 489K
20260430T12Z_MSC_GDPS_GeopotentialHeight_IsbL-0010_LatLon0.15_PT192H.grib2 2026-04-30 16:32 474K
20260430T12Z_MSC_GDPS_GeopotentialHeight_IsbL-0020_LatLon0.15_PT192H.grib2 2026-04-30 16:32 407K
20260430T12Z_MSC_GDPS_GeopotentialHeight_IsbL-0030_LatLon0.15_PT192H.grib2 2026-04-30 16:32 412K
20260430T12Z_MSC_GDPS_GeopotentialHeight_IsbL-0050_LatLon0.15_PT192H.grib2 2026-04-30 16:32 565K
20260430T12Z_MSC_GDPS_GeopotentialHeight_IsbL-0100_LatLon0.15_PT192H.grib2 2026-04-30 16:32 604K
20260430T12Z_MSC_GDPS_GeopotentialHeight_IsbL-0150_LatLon0.15_PT192H.grib2 2026-04-30 16:32 624K
20260430T12Z_MSC_GDPS_GeopotentialHeight_IsbL-0175_LatLon0.15_PT192H.grib2 2026-04-30 16:32 630K
20260430T12Z_MSC_GDPS_GeopotentialHeight_IsbL-0200_LatLon0.15_PT192H.grib2 2026-04-30 16:32 637K
20260430T12Z_MSC_GDPS_GeopotentialHeight_IsbL-0225_LatLon0.15_PT192H.grib2 2026-04-30 16:32 643K
20260430T12Z_MSC_GDPS_GeopotentialHeight_IsbL-0250_LatLon0.15_PT192H.grib2 2026-04-30 16:32 647K
20260430T12Z_MSC_GDPS_GeopotentialHeight_IsbL-0275_LatLon0.15_PT192H.grib2 2026-04-30 16:32 645K
20260430T12Z_MSC_GDPS_GeopotentialHeight_IsbL-0300_LatLon0.15_PT192H.grib2 2026-04-30 16:32 637K
20260430T12Z_MSC_GDPS_GeopotentialHeight_IsbL-0350_LatLon0.15_PT192H.grib2 2026-04-30 16:32 631K
20260430T12Z_MSC_GDPS_GeopotentialHeight_IsbL-0400_LatLon0.15_PT192H.grib2 2026-04-30 16:32 624K
20260430T12Z_MSC_GDPS_GeopotentialHeight_IsbL-0450_LatLon0.15_PT192H.grib2 2026-04-30 16:32 612K
20260430T12Z_MSC_GDPS_GeopotentialHeight_IsbL-0500_LatLon0.15_PT192H.grib2 2026-04-30 16:32 531K
20260430T12Z_MSC_GDPS_GeopotentialHeight_IsbL-0550_LatLon0.15_PT192H.grib2 2026-04-30 16:32 526K
20260430T12Z_MSC_GDPS_GeopotentialHeight_IsbL-0600_LatLon0.15_PT192H.grib2 2026-04-30 16:32 524K
20260430T12Z_MSC_GDPS_GeopotentialHeight_IsbL-0650_LatLon0.15_PT192H.grib2 2026-04-30 16:32 693K
20260430T12Z_MSC_GDPS_GeopotentialHeight_IsbL-0700_LatLon0.15_PT192H.grib2 2026-04-30 16:32 696K
20260430T12Z_MSC_GDPS_GeopotentialHeight_IsbL-0750_LatLon0.15_PT192H.grib2 2026-04-30 16:32 702K
20260430T12Z_MSC_GDPS_GeopotentialHeight_IsbL-0800_LatLon0.15_PT192H.grib2 2026-04-30 16:32 711K
20260430T12Z_MSC_GDPS_GeopotentialHeight_IsbL-0850_LatLon0.15_PT192H.grib2 2026-04-30 16:32 717K
20260430T12Z_MSC_GDPS_GeopotentialHeight_IsbL-0875_LatLon0.15_PT192H.grib2 2026-04-30 16:32 722K
20260430T12Z_MSC_GDPS_GeopotentialHeight_IsbL-0900_LatLon0.15_PT192H.grib2 2026-04-30 16:32 730K
20260430T12Z_MSC_GDPS_GeopotentialHeight_IsbL-0925_LatLon0.15_PT192H.grib2 2026-04-30 16:32 737K
20260430T12Z_MSC_GDPS_GeopotentialHeight_IsbL-0950_LatLon0.15_PT192H.grib2 2026-04-30 16:32 741K
20260430T12Z_MSC_GDPS_GeopotentialHeight_IsbL-0970_LatLon0.15_PT192H.grib2 2026-04-30 16:32 755K
20260430T12Z_MSC_GDPS_GeopotentialHeight_IsbL-0985_LatLon0.15_PT192H.grib2 2026-04-30 16:32 770K
20260430T12Z_MSC_GDPS_GeopotentialHeight_IsbL-1000_LatLon0.15_PT192H.grib2 2026-04-30 16:32 791K
20260430T12Z_MSC_GDPS_GeopotentialHeight_IsbL-1015_LatLon0.15_PT192H.grib2 2026-04-30 16:32 813K
20260430T12Z_MSC_GDPS_Humidex_Sfc_LatLon0.15_PT192H.grib2 2026-04-30 16:32 5.3M
20260430T12Z_MSC_GDPS_IcePellets-Accum12h_Sfc_LatLon0.15_PT192H.grib2 2026-04-30 16:32 7.3K
20260430T12Z_MSC_GDPS_IcePellets-Accum24h_Sfc_LatLon0.15_PT192H.grib2 2026-04-30 16:32 12K
20260430T12Z_MSC_GDPS_IcePellets-Accum6h_Sfc_LatLon0.15_PT192H.grib2 2026-04-30 16:32 8.5K
20260430T12Z_MSC_GDPS_IcePellets-Accum_Sfc_LatLon0.15_PT192H.grib2 2026-04-30 16:32 153K
20260430T12Z_MSC_GDPS_KIndex_Sfc_LatLon0.15_PT192H.grib2 2026-04-30 16:32 6.5M
20260430T12Z_MSC_GDPS_LatentHeatNetFlux_Sfc_LatLon0.15_PT192H.grib2 2026-04-30 16:32 728K
20260430T12Z_MSC_GDPS_LiftedIndex-MU-VT_IsbL-0500_LatLon0.15_PT192H.grib2 2026-04-30 16:32 5.4M
20260430T12Z_MSC_GDPS_NetLongwaveRadiationFlux-Accum_Sfc_LatLon0.15_PT192H.grib2 2026-04-30 16:32 889K
20260430T12Z_MSC_GDPS_NetShortwaveRadiationFlux-Accum_Sfc_LatLon0.15_PT192H.grib2 2026-04-30 16:32 850K
20260430T12Z_MSC_GDPS_O3MixingRatio_Sfc_LatLon0.15_PT192H.grib2 2026-04-30 16:46 1.9M
20260430T12Z_MSC_GDPS_O3_EAtm_LatLon0.15_PT192H.grib2 2026-04-30 16:46 2.4M
20260430T12Z_MSC_GDPS_PlanetaryBoundaryLayerHeight_Sfc_LatLon0.15_PT192H.grib2 2026-04-30 16:32 2.5M
20260430T12Z_MSC_GDPS_Precip-Accum12h_Sfc_LatLon0.15_PT192H.grib2 2026-04-30 16:32 4.1M
20260430T12Z_MSC_GDPS_Precip-Accum24h_Sfc_LatLon0.15_PT192H.grib2 2026-04-30 16:32 4.6M
20260430T12Z_MSC_GDPS_Precip-Accum6h_Sfc_LatLon0.15_PT192H.grib2 2026-04-30 16:32 3.6M
20260430T12Z_MSC_GDPS_Precip-Accum_Sfc_LatLon0.15_PT192H.grib2 2026-04-30 16:32 5.4M
20260430T12Z_MSC_GDPS_PrecipRate_Sfc_LatLon0.15_PT192H.grib2 2026-04-30 16:32 3.1M
20260430T12Z_MSC_GDPS_PrecipType-Instant_Sfc_LatLon0.15_PT192H.grib2 2026-04-30 16:32 1.6M
20260430T12Z_MSC_GDPS_Pressure_MSL_LatLon0.15_PT192H.grib2 2026-04-30 16:32 726K
20260430T12Z_MSC_GDPS_Pressure_PVU-1.5_LatLon0.15_PT192H.grib2 2026-04-30 16:32 5.8M
20260430T12Z_MSC_GDPS_Pressure_PVU-1_LatLon0.15_PT192H.grib2 2026-04-30 16:32 6.0M
20260430T12Z_MSC_GDPS_Pressure_PVU-2_LatLon0.15_PT192H.grib2 2026-04-30 16:32 5.6M
20260430T12Z_MSC_GDPS_Pressure_Sfc_LatLon0.15_PT192H.grib2 2026-04-30 16:32 1.1M
20260430T12Z_MSC_GDPS_RadiativeTemp_Sfc_LatLon0.15_PT192H.grib2 2026-04-30 16:32 505K
20260430T12Z_MSC_GDPS_Rain-Accum12h_Sfc_LatLon0.15_PT192H.grib2 2026-04-30 16:32 2.7M
20260430T12Z_MSC_GDPS_Rain-Accum24h_Sfc_LatLon0.15_PT192H.grib2 2026-04-30 16:32 3.2M
20260430T12Z_MSC_GDPS_Rain-Accum6h_Sfc_LatLon0.15_PT192H.grib2 2026-04-30 16:32 2.3M
20260430T12Z_MSC_GDPS_Rain-Accum_Sfc_LatLon0.15_PT192H.grib2 2026-04-30 16:32 4.2M
20260430T12Z_MSC_GDPS_RelativeHumidity_AGL-2m_LatLon0.15_PT192H.grib2 2026-04-30 16:32 1.0M
20260430T12Z_MSC_GDPS_RelativeHumidity_IsbL-0010_LatLon0.15_PT192H.grib2 2026-04-30 16:32 195K
20260430T12Z_MSC_GDPS_RelativeHumidity_IsbL-0020_LatLon0.15_PT192H.grib2 2026-04-30 16:32 157K
20260430T12Z_MSC_GDPS_RelativeHumidity_IsbL-0030_LatLon0.15_PT192H.grib2 2026-04-30 16:32 179K
20260430T12Z_MSC_GDPS_RelativeHumidity_IsbL-0050_LatLon0.15_PT192H.grib2 2026-04-30 16:32 330K
20260430T12Z_MSC_GDPS_RelativeHumidity_IsbL-0100_LatLon0.15_PT192H.grib2 2026-04-30 16:32 494K
20260430T12Z_MSC_GDPS_RelativeHumidity_IsbL-0150_LatLon0.15_PT192H.grib2 2026-04-30 16:32 677K
20260430T12Z_MSC_GDPS_RelativeHumidity_IsbL-0175_LatLon0.15_PT192H.grib2 2026-04-30 16:32 798K
20260430T12Z_MSC_GDPS_RelativeHumidity_IsbL-0200_LatLon0.15_PT192H.grib2 2026-04-30 16:32 712K
20260430T12Z_MSC_GDPS_RelativeHumidity_IsbL-0225_LatLon0.15_PT192H.grib2 2026-04-30 16:32 796K
20260430T12Z_MSC_GDPS_RelativeHumidity_IsbL-0250_LatLon0.15_PT192H.grib2 2026-04-30 16:32 873K
20260430T12Z_MSC_GDPS_RelativeHumidity_IsbL-0275_LatLon0.15_PT192H.grib2 2026-04-30 16:32 898K
20260430T12Z_MSC_GDPS_RelativeHumidity_IsbL-0300_LatLon0.15_PT192H.grib2 2026-04-30 16:32 941K
20260430T12Z_MSC_GDPS_RelativeHumidity_IsbL-0350_LatLon0.15_PT192H.grib2 2026-04-30 16:32 957K
20260430T12Z_MSC_GDPS_RelativeHumidity_IsbL-0400_LatLon0.15_PT192H.grib2 2026-04-30 16:32 1.0M
20260430T12Z_MSC_GDPS_RelativeHumidity_IsbL-0450_LatLon0.15_PT192H.grib2 2026-04-30 16:32 1.0M
20260430T12Z_MSC_GDPS_RelativeHumidity_IsbL-0500_LatLon0.15_PT192H.grib2 2026-04-30 16:32 1.0M
20260430T12Z_MSC_GDPS_RelativeHumidity_IsbL-0550_LatLon0.15_PT192H.grib2 2026-04-30 16:32 1.0M
20260430T12Z_MSC_GDPS_RelativeHumidity_IsbL-0600_LatLon0.15_PT192H.grib2 2026-04-30 16:32 1.0M
20260430T12Z_MSC_GDPS_RelativeHumidity_IsbL-0650_LatLon0.15_PT192H.grib2 2026-04-30 16:32 1.1M
20260430T12Z_MSC_GDPS_RelativeHumidity_IsbL-0700_LatLon0.15_PT192H.grib2 2026-04-30 16:32 1.1M
20260430T12Z_MSC_GDPS_RelativeHumidity_IsbL-0750_LatLon0.15_PT192H.grib2 2026-04-30 16:32 1.1M
20260430T12Z_MSC_GDPS_RelativeHumidity_IsbL-0800_LatLon0.15_PT192H.grib2 2026-04-30 16:32 1.3M
20260430T12Z_MSC_GDPS_RelativeHumidity_IsbL-0850_LatLon0.15_PT192H.grib2 2026-04-30 16:32 1.3M
20260430T12Z_MSC_GDPS_RelativeHumidity_IsbL-0875_LatLon0.15_PT192H.grib2 2026-04-30 16:32 1.3M
20260430T12Z_MSC_GDPS_RelativeHumidity_IsbL-0900_LatLon0.15_PT192H.grib2 2026-04-30 16:32 1.2M
20260430T12Z_MSC_GDPS_RelativeHumidity_IsbL-0925_LatLon0.15_PT192H.grib2 2026-04-30 16:32 1.2M
20260430T12Z_MSC_GDPS_RelativeHumidity_IsbL-0950_LatLon0.15_PT192H.grib2 2026-04-30 16:32 1.2M
20260430T12Z_MSC_GDPS_RelativeHumidity_IsbL-0970_LatLon0.15_PT192H.grib2 2026-04-30 16:32 1.2M
20260430T12Z_MSC_GDPS_RelativeHumidity_IsbL-0985_LatLon0.15_PT192H.grib2 2026-04-30 16:32 1.1M
20260430T12Z_MSC_GDPS_RelativeHumidity_IsbL-1000_LatLon0.15_PT192H.grib2 2026-04-30 16:32 1.1M
20260430T12Z_MSC_GDPS_RelativeHumidity_IsbL-1015_LatLon0.15_PT192H.grib2 2026-04-30 16:32 1.0M
20260430T12Z_MSC_GDPS_RelativeVorticity_IsbL-0200_LatLon0.15_PT192H.grib2 2026-04-30 16:32 1.2M
20260430T12Z_MSC_GDPS_RelativeVorticity_IsbL-0250_LatLon0.15_PT192H.grib2 2026-04-30 16:32 1.3M
20260430T12Z_MSC_GDPS_RelativeVorticity_IsbL-0500_LatLon0.15_PT192H.grib2 2026-04-30 16:32 1.2M
20260430T12Z_MSC_GDPS_RelativeVorticity_IsbL-0700_LatLon0.15_PT192H.grib2 2026-04-30 16:32 1.3M
20260430T12Z_MSC_GDPS_RelativeVorticity_IsbL-0850_LatLon0.15_PT192H.grib2 2026-04-30 16:32 1.6M
20260430T12Z_MSC_GDPS_Runoff-Accum_Sfc_LatLon0.15_PT192H.grib2 2026-04-30 16:32 129K
20260430T12Z_MSC_GDPS_SensibleHeatNetFlux_Sfc_LatLon0.15_PT192H.grib2 2026-04-30 16:32 486K
20260430T12Z_MSC_GDPS_ShowalterIndex_IsbL-0500_LatLon0.15_PT192H.grib2 2026-04-30 16:32 6.2M
20260430T12Z_MSC_GDPS_Snow-Accum12h_Sfc_LatLon0.15_PT192H.grib2 2026-04-30 16:32 1.6M
20260430T12Z_MSC_GDPS_Snow-Accum24h_Sfc_LatLon0.15_PT192H.grib2 2026-04-30 16:32 1.6M
20260430T12Z_MSC_GDPS_Snow-Accum6h_Sfc_LatLon0.15_PT192H.grib2 2026-04-30 16:32 1.4M
20260430T12Z_MSC_GDPS_Snow-Accum_Sfc_LatLon0.15_PT192H.grib2 2026-04-30 16:32 2.1M
20260430T12Z_MSC_GDPS_SnowDensity_Sfc_LatLon0.15_PT192H.grib2 2026-04-30 16:32 260K
20260430T12Z_MSC_GDPS_SnowDepth_Sfc_LatLon0.15_PT192H.grib2 2026-04-30 16:32 1.7M
20260430T12Z_MSC_GDPS_SoilTemp_DBS-0to10cm_LatLon0.15_PT192H.grib2 2026-04-30 16:32 515K
20260430T12Z_MSC_GDPS_SoilTemp_Sfc_LatLon0.15_PT192H.grib2 2026-04-30 16:32 576K
20260430T12Z_MSC_GDPS_SoilVolumetricIceContent_Sfc_LatLon0.15_PT192H.grib2 2026-04-30 16:32 183K
20260430T12Z_MSC_GDPS_SoilVolumetricWaterContent_DBS-0to10cm_LatLon0.15_PT192H.grib2 2026-04-30 16:32 595K
20260430T12Z_MSC_GDPS_SoilVolumetricWaterContent_DBS-0to1cm_LatLon0.15_PT192H.grib2 2026-04-30 16:32 650K
20260430T12Z_MSC_GDPS_SpecificHumidity_AGL-120m_LatLon0.15_PT192H.grib2 2026-04-30 16:32 1.1M
20260430T12Z_MSC_GDPS_SpecificHumidity_AGL-2m_LatLon0.15_PT192H.grib2 2026-04-30 16:32 1.2M
20260430T12Z_MSC_GDPS_SpecificHumidity_AGL-40m_LatLon0.15_PT192H.grib2 2026-04-30 16:32 1.1M
20260430T12Z_MSC_GDPS_SpecificHumidity_AGL-80m_LatLon0.15_PT192H.grib2 2026-04-30 16:32 1.1M
20260430T12Z_MSC_GDPS_SpecificHumidity_IsbL-0001_LatLon0.15_PT192H.grib2 2026-04-30 16:32 1.1M
20260430T12Z_MSC_GDPS_SpecificHumidity_IsbL-0005_LatLon0.15_PT192H.grib2 2026-04-30 16:32 1.0M
20260430T12Z_MSC_GDPS_SpecificHumidity_IsbL-0010_LatLon0.15_PT192H.grib2 2026-04-30 16:32 1.2M
20260430T12Z_MSC_GDPS_SpecificHumidity_IsbL-0020_LatLon0.15_PT192H.grib2 2026-04-30 16:32 1.2M
20260430T12Z_MSC_GDPS_SpecificHumidity_IsbL-0030_LatLon0.15_PT192H.grib2 2026-04-30 16:32 1.4M
20260430T12Z_MSC_GDPS_SpecificHumidity_IsbL-0050_LatLon0.15_PT192H.grib2 2026-04-30 16:32 1.2M
20260430T12Z_MSC_GDPS_SpecificHumidity_IsbL-0100_LatLon0.15_PT192H.grib2 2026-04-30 16:32 1.2M
20260430T12Z_MSC_GDPS_SpecificHumidity_IsbL-0150_LatLon0.15_PT192H.grib2 2026-04-30 16:32 1.3M
20260430T12Z_MSC_GDPS_SpecificHumidity_IsbL-0175_LatLon0.15_PT192H.grib2 2026-04-30 16:32 1.3M
20260430T12Z_MSC_GDPS_SpecificHumidity_IsbL-0200_LatLon0.15_PT192H.grib2 2026-04-30 16:32 1.3M
20260430T12Z_MSC_GDPS_SpecificHumidity_IsbL-0225_LatLon0.15_PT192H.grib2 2026-04-30 16:32 1.3M
20260430T12Z_MSC_GDPS_SpecificHumidity_IsbL-0250_LatLon0.15_PT192H.grib2 2026-04-30 16:32 1.2M
20260430T12Z_MSC_GDPS_SpecificHumidity_IsbL-0275_LatLon0.15_PT192H.grib2 2026-04-30 16:32 1.3M
20260430T12Z_MSC_GDPS_SpecificHumidity_IsbL-0300_LatLon0.15_PT192H.grib2 2026-04-30 16:32 1.2M
20260430T12Z_MSC_GDPS_SpecificHumidity_IsbL-0350_LatLon0.15_PT192H.grib2 2026-04-30 16:32 1.2M
20260430T12Z_MSC_GDPS_SpecificHumidity_IsbL-0400_LatLon0.15_PT192H.grib2 2026-04-30 16:32 1.5M
20260430T12Z_MSC_GDPS_SpecificHumidity_IsbL-0450_LatLon0.15_PT192H.grib2 2026-04-30 16:32 1.3M
20260430T12Z_MSC_GDPS_SpecificHumidity_IsbL-0500_LatLon0.15_PT192H.grib2 2026-04-30 16:32 1.5M
20260430T12Z_MSC_GDPS_SpecificHumidity_IsbL-0550_LatLon0.15_PT192H.grib2 2026-04-30 16:32 1.6M
20260430T12Z_MSC_GDPS_SpecificHumidity_IsbL-0600_LatLon0.15_PT192H.grib2 2026-04-30 16:32 1.4M
20260430T12Z_MSC_GDPS_SpecificHumidity_IsbL-0650_LatLon0.15_PT192H.grib2 2026-04-30 16:32 1.5M
20260430T12Z_MSC_GDPS_SpecificHumidity_IsbL-0700_LatLon0.15_PT192H.grib2 2026-04-30 16:32 1.6M
20260430T12Z_MSC_GDPS_SpecificHumidity_IsbL-0750_LatLon0.15_PT192H.grib2 2026-04-30 16:32 1.7M
20260430T12Z_MSC_GDPS_SpecificHumidity_IsbL-0800_LatLon0.15_PT192H.grib2 2026-04-30 16:32 1.9M
20260430T12Z_MSC_GDPS_SpecificHumidity_IsbL-0850_LatLon0.15_PT192H.grib2 2026-04-30 16:32 2.0M
20260430T12Z_MSC_GDPS_SpecificHumidity_IsbL-0875_LatLon0.15_PT192H.grib2 2026-04-30 16:32 2.0M
20260430T12Z_MSC_GDPS_SpecificHumidity_IsbL-0900_LatLon0.15_PT192H.grib2 2026-04-30 16:32 1.6M
20260430T12Z_MSC_GDPS_SpecificHumidity_IsbL-0925_LatLon0.15_PT192H.grib2 2026-04-30 16:32 1.6M
20260430T12Z_MSC_GDPS_SpecificHumidity_IsbL-0950_LatLon0.15_PT192H.grib2 2026-04-30 16:32 1.6M
20260430T12Z_MSC_GDPS_SpecificHumidity_IsbL-0970_LatLon0.15_PT192H.grib2 2026-04-30 16:32 1.6M
20260430T12Z_MSC_GDPS_SpecificHumidity_IsbL-0985_LatLon0.15_PT192H.grib2 2026-04-30 16:32 1.6M
20260430T12Z_MSC_GDPS_SpecificHumidity_IsbL-1000_LatLon0.15_PT192H.grib2 2026-04-30 16:32 1.5M
20260430T12Z_MSC_GDPS_SpecificHumidity_IsbL-1015_LatLon0.15_PT192H.grib2 2026-04-30 16:32 1.5M
20260430T12Z_MSC_GDPS_SpecificHumidity_Sfc_LatLon0.15_PT192H.grib2 2026-04-30 16:32 687K
20260430T12Z_MSC_GDPS_Thickness_IsbL-0850to0700_LatLon0.15_PT192H.grib2 2026-04-30 16:32 471K
20260430T12Z_MSC_GDPS_Thickness_IsbL-1000to0500_LatLon0.15_PT192H.grib2 2026-04-30 16:32 374K
20260430T12Z_MSC_GDPS_Thickness_IsbL-1000to0850_LatLon0.15_PT192H.grib2 2026-04-30 16:32 489K
20260430T12Z_MSC_GDPS_TotalCloudCover_Sfc_LatLon0.15_PT192H.grib2 2026-04-30 16:32 841K
20260430T12Z_MSC_GDPS_TotalTotalsIndex_Sfc_LatLon0.15_PT192H.grib2 2026-04-30 16:32 6.2M
20260430T12Z_MSC_GDPS_UVIndex-ClearSky_Sfc_LatLon0.15_PT192H.grib2 2026-04-30 16:46 1.0M
20260430T12Z_MSC_GDPS_UVIndex_Sfc_LatLon0.15_PT192H.grib2 2026-04-30 16:46 1.5M
20260430T12Z_MSC_GDPS_UpwardLongwaveRadiationFlux_NTAtm_LatLon0.15_PT192H.grib2 2026-04-30 16:32 851K
20260430T12Z_MSC_GDPS_VerticalVelocity_IsbL-0200_LatLon0.15_PT192H.grib2 2026-04-30 16:32 929K
20260430T12Z_MSC_GDPS_VerticalVelocity_IsbL-0250_LatLon0.15_PT192H.grib2 2026-04-30 16:32 1.1M
20260430T12Z_MSC_GDPS_VerticalVelocity_IsbL-0500_LatLon0.15_PT192H.grib2 2026-04-30 16:32 1.0M
20260430T12Z_MSC_GDPS_VerticalVelocity_IsbL-0600_LatLon0.15_PT192H.grib2 2026-04-30 16:32 1.1M
20260430T12Z_MSC_GDPS_VerticalVelocity_IsbL-0700_LatLon0.15_PT192H.grib2 2026-04-30 16:32 1.1M
20260430T12Z_MSC_GDPS_VerticalVelocity_IsbL-0850_LatLon0.15_PT192H.grib2 2026-04-30 16:32 1.3M
20260430T12Z_MSC_GDPS_WindChill_Sfc_LatLon0.15_PT192H.grib2 2026-04-30 16:32 5.3M
20260430T12Z_MSC_GDPS_WindDir_AGL-10m_LatLon0.15_PT192H.grib2 2026-04-30 16:32 1.3M
20260430T12Z_MSC_GDPS_WindDir_AGL-120m_LatLon0.15_PT192H.grib2 2026-04-30 16:32 1.4M
20260430T12Z_MSC_GDPS_WindDir_AGL-40m_LatLon0.15_PT192H.grib2 2026-04-30 16:32 1.4M
20260430T12Z_MSC_GDPS_WindDir_AGL-80m_LatLon0.15_PT192H.grib2 2026-04-30 16:32 1.4M
20260430T12Z_MSC_GDPS_WindDir_IsbL-0001_LatLon0.15_PT192H.grib2 2026-04-30 16:32 658K
20260430T12Z_MSC_GDPS_WindDir_IsbL-0005_LatLon0.15_PT192H.grib2 2026-04-30 16:32 808K
20260430T12Z_MSC_GDPS_WindDir_IsbL-0010_LatLon0.15_PT192H.grib2 2026-04-30 16:32 827K
20260430T12Z_MSC_GDPS_WindDir_IsbL-0020_LatLon0.15_PT192H.grib2 2026-04-30 16:32 932K
20260430T12Z_MSC_GDPS_WindDir_IsbL-0030_LatLon0.15_PT192H.grib2 2026-04-30 16:32 931K
20260430T12Z_MSC_GDPS_WindDir_IsbL-0050_LatLon0.15_PT192H.grib2 2026-04-30 16:32 954K
20260430T12Z_MSC_GDPS_WindDir_IsbL-0100_LatLon0.15_PT192H.grib2 2026-04-30 16:32 1.0M
20260430T12Z_MSC_GDPS_WindDir_IsbL-0150_LatLon0.15_PT192H.grib2 2026-04-30 16:32 1.0M
20260430T12Z_MSC_GDPS_WindDir_IsbL-0175_LatLon0.15_PT192H.grib2 2026-04-30 16:32 1.1M
20260430T12Z_MSC_GDPS_WindDir_IsbL-0200_LatLon0.15_PT192H.grib2 2026-04-30 16:32 1.1M
20260430T12Z_MSC_GDPS_WindDir_IsbL-0225_LatLon0.15_PT192H.grib2 2026-04-30 16:32 1.1M
20260430T12Z_MSC_GDPS_WindDir_IsbL-0250_LatLon0.15_PT192H.grib2 2026-04-30 16:32 1.1M
20260430T12Z_MSC_GDPS_WindDir_IsbL-0275_LatLon0.15_PT192H.grib2 2026-04-30 16:32 1.2M
20260430T12Z_MSC_GDPS_WindDir_IsbL-0300_LatLon0.15_PT192H.grib2 2026-04-30 16:32 1.2M
20260430T12Z_MSC_GDPS_WindDir_IsbL-0350_LatLon0.15_PT192H.grib2 2026-04-30 16:32 1.3M
20260430T12Z_MSC_GDPS_WindDir_IsbL-0400_LatLon0.15_PT192H.grib2 2026-04-30 16:32 1.3M
20260430T12Z_MSC_GDPS_WindDir_IsbL-0450_LatLon0.15_PT192H.grib2 2026-04-30 16:32 1.3M
20260430T12Z_MSC_GDPS_WindDir_IsbL-0500_LatLon0.15_PT192H.grib2 2026-04-30 16:32 1.4M
20260430T12Z_MSC_GDPS_WindDir_IsbL-0550_LatLon0.15_PT192H.grib2 2026-04-30 16:32 1.4M
20260430T12Z_MSC_GDPS_WindDir_IsbL-0600_LatLon0.15_PT192H.grib2 2026-04-30 16:32 1.5M
20260430T12Z_MSC_GDPS_WindDir_IsbL-0650_LatLon0.15_PT192H.grib2 2026-04-30 16:32 1.5M
20260430T12Z_MSC_GDPS_WindDir_IsbL-0700_LatLon0.15_PT192H.grib2 2026-04-30 16:32 1.6M
20260430T12Z_MSC_GDPS_WindDir_IsbL-0750_LatLon0.15_PT192H.grib2 2026-04-30 16:32 1.7M
20260430T12Z_MSC_GDPS_WindDir_IsbL-0800_LatLon0.15_PT192H.grib2 2026-04-30 16:32 1.8M
20260430T12Z_MSC_GDPS_WindDir_IsbL-0850_LatLon0.15_PT192H.grib2 2026-04-30 16:32 1.9M
20260430T12Z_MSC_GDPS_WindDir_IsbL-0875_LatLon0.15_PT192H.grib2 2026-04-30 16:32 2.0M
20260430T12Z_MSC_GDPS_WindDir_IsbL-0900_LatLon0.15_PT192H.grib2 2026-04-30 16:32 2.0M
20260430T12Z_MSC_GDPS_WindDir_IsbL-0925_LatLon0.15_PT192H.grib2 2026-04-30 16:32 2.0M
20260430T12Z_MSC_GDPS_WindDir_IsbL-0950_LatLon0.15_PT192H.grib2 2026-04-30 16:32 2.0M
20260430T12Z_MSC_GDPS_WindDir_IsbL-0970_LatLon0.15_PT192H.grib2 2026-04-30 16:32 2.0M
20260430T12Z_MSC_GDPS_WindDir_IsbL-0985_LatLon0.15_PT192H.grib2 2026-04-30 16:32 2.0M
20260430T12Z_MSC_GDPS_WindDir_IsbL-1000_LatLon0.15_PT192H.grib2 2026-04-30 16:32 2.1M
20260430T12Z_MSC_GDPS_WindDir_IsbL-1015_LatLon0.15_PT192H.grib2 2026-04-30 16:32 2.0M
20260430T12Z_MSC_GDPS_WindGust-Max_AGL-10m_LatLon0.15_PT192H.grib2 2026-04-30 16:32 2.2M
20260430T12Z_MSC_GDPS_WindGust-Min_AGL-10m_LatLon0.15_PT192H.grib2 2026-04-30 16:32 2.2M
20260430T12Z_MSC_GDPS_WindGust_AGL-10m_LatLon0.15_PT192H.grib2 2026-04-30 16:32 2.2M
20260430T12Z_MSC_GDPS_WindSpeed_AGL-10m_LatLon0.15_PT192H.grib2 2026-04-30 16:32 1.1M
20260430T12Z_MSC_GDPS_WindSpeed_AGL-120m_LatLon0.15_PT192H.grib2 2026-04-30 16:32 1.2M
20260430T12Z_MSC_GDPS_WindSpeed_AGL-40m_LatLon0.15_PT192H.grib2 2026-04-30 16:32 1.2M
20260430T12Z_MSC_GDPS_WindSpeed_AGL-80m_LatLon0.15_PT192H.grib2 2026-04-30 16:32 1.2M
20260430T12Z_MSC_GDPS_WindSpeed_IsbL-0001_LatLon0.15_PT192H.grib2 2026-04-30 16:32 503K
20260430T12Z_MSC_GDPS_WindSpeed_IsbL-0005_LatLon0.15_PT192H.grib2 2026-04-30 16:32 693K
20260430T12Z_MSC_GDPS_WindSpeed_IsbL-0010_LatLon0.15_PT192H.grib2 2026-04-30 16:32 624K
20260430T12Z_MSC_GDPS_WindSpeed_IsbL-0020_LatLon0.15_PT192H.grib2 2026-04-30 16:32 658K
20260430T12Z_MSC_GDPS_WindSpeed_IsbL-0030_LatLon0.15_PT192H.grib2 2026-04-30 16:32 853K
20260430T12Z_MSC_GDPS_WindSpeed_IsbL-0050_LatLon0.15_PT192H.grib2 2026-04-30 16:32 889K
20260430T12Z_MSC_GDPS_WindSpeed_IsbL-0100_LatLon0.15_PT192H.grib2 2026-04-30 16:32 1.1M
20260430T12Z_MSC_GDPS_WindSpeed_IsbL-0150_LatLon0.15_PT192H.grib2 2026-04-30 16:32 1.0M
20260430T12Z_MSC_GDPS_WindSpeed_IsbL-0175_LatLon0.15_PT192H.grib2 2026-04-30 16:32 1.0M
20260430T12Z_MSC_GDPS_WindSpeed_IsbL-0200_LatLon0.15_PT192H.grib2 2026-04-30 16:32 1.0M
20260430T12Z_MSC_GDPS_WindSpeed_IsbL-0225_LatLon0.15_PT192H.grib2 2026-04-30 16:32 1.1M
20260430T12Z_MSC_GDPS_WindSpeed_IsbL-0250_LatLon0.15_PT192H.grib2 2026-04-30 16:32 1.1M
20260430T12Z_MSC_GDPS_WindSpeed_IsbL-0275_LatLon0.15_PT192H.grib2 2026-04-30 16:32 1.1M
20260430T12Z_MSC_GDPS_WindSpeed_IsbL-0300_LatLon0.15_PT192H.grib2 2026-04-30 16:32 1.1M
20260430T12Z_MSC_GDPS_WindSpeed_IsbL-0350_LatLon0.15_PT192H.grib2 2026-04-30 16:32 1.1M
20260430T12Z_MSC_GDPS_WindSpeed_IsbL-0400_LatLon0.15_PT192H.grib2 2026-04-30 16:32 1.1M
20260430T12Z_MSC_GDPS_WindSpeed_IsbL-0450_LatLon0.15_PT192H.grib2 2026-04-30 16:32 1.1M
20260430T12Z_MSC_GDPS_WindSpeed_IsbL-0500_LatLon0.15_PT192H.grib2 2026-04-30 16:32 1.1M
20260430T12Z_MSC_GDPS_WindSpeed_IsbL-0550_LatLon0.15_PT192H.grib2 2026-04-30 16:32 1.1M
20260430T12Z_MSC_GDPS_WindSpeed_IsbL-0600_LatLon0.15_PT192H.grib2 2026-04-30 16:32 1.1M
20260430T12Z_MSC_GDPS_WindSpeed_IsbL-0650_LatLon0.15_PT192H.grib2 2026-04-30 16:32 1.5M
20260430T12Z_MSC_GDPS_WindSpeed_IsbL-0700_LatLon0.15_PT192H.grib2 2026-04-30 16:32 1.5M
20260430T12Z_MSC_GDPS_WindSpeed_IsbL-0750_LatLon0.15_PT192H.grib2 2026-04-30 16:32 1.6M
20260430T12Z_MSC_GDPS_WindSpeed_IsbL-0800_LatLon0.15_PT192H.grib2 2026-04-30 16:32 1.7M
20260430T12Z_MSC_GDPS_WindSpeed_IsbL-0850_LatLon0.15_PT192H.grib2 2026-04-30 16:32 1.8M
20260430T12Z_MSC_GDPS_WindSpeed_IsbL-0875_LatLon0.15_PT192H.grib2 2026-04-30 16:32 1.8M
20260430T12Z_MSC_GDPS_WindSpeed_IsbL-0900_LatLon0.15_PT192H.grib2 2026-04-30 16:32 1.8M
20260430T12Z_MSC_GDPS_WindSpeed_IsbL-0925_LatLon0.15_PT192H.grib2 2026-04-30 16:32 1.8M
20260430T12Z_MSC_GDPS_WindSpeed_IsbL-0950_LatLon0.15_PT192H.grib2 2026-04-30 16:32 1.9M
20260430T12Z_MSC_GDPS_WindSpeed_IsbL-0970_LatLon0.15_PT192H.grib2 2026-04-30 16:32 1.9M
20260430T12Z_MSC_GDPS_WindSpeed_IsbL-0985_LatLon0.15_PT192H.grib2 2026-04-30 16:32 1.9M
20260430T12Z_MSC_GDPS_WindSpeed_IsbL-1000_LatLon0.15_PT192H.grib2 2026-04-30 16:32 1.8M
20260430T12Z_MSC_GDPS_WindSpeed_IsbL-1015_LatLon0.15_PT192H.grib2 2026-04-30 16:32 1.8M
20260430T12Z_MSC_GDPS_WindU_AGL-10m_LatLon0.15_PT192H.grib2 2026-04-30 16:32 1.3M
20260430T12Z_MSC_GDPS_WindU_AGL-120m_LatLon0.15_PT192H.grib2 2026-04-30 16:32 967K
20260430T12Z_MSC_GDPS_WindU_AGL-40m_LatLon0.15_PT192H.grib2 2026-04-30 16:32 963K
20260430T12Z_MSC_GDPS_WindU_AGL-80m_LatLon0.15_PT192H.grib2 2026-04-30 16:32 967K
20260430T12Z_MSC_GDPS_WindU_IsbL-0001_LatLon0.15_PT192H.grib2 2026-04-30 16:32 501K
20260430T12Z_MSC_GDPS_WindU_IsbL-0005_LatLon0.15_PT192H.grib2 2026-04-30 16:32 692K
20260430T12Z_MSC_GDPS_WindU_IsbL-0010_LatLon0.15_PT192H.grib2 2026-04-30 16:32 700K
20260430T12Z_MSC_GDPS_WindU_IsbL-0020_LatLon0.15_PT192H.grib2 2026-04-30 16:32 725K
20260430T12Z_MSC_GDPS_WindU_IsbL-0030_LatLon0.15_PT192H.grib2 2026-04-30 16:32 730K
20260430T12Z_MSC_GDPS_WindU_IsbL-0050_LatLon0.15_PT192H.grib2 2026-04-30 16:32 753K
20260430T12Z_MSC_GDPS_WindU_IsbL-0100_LatLon0.15_PT192H.grib2 2026-04-30 16:32 859K
20260430T12Z_MSC_GDPS_WindU_IsbL-0150_LatLon0.15_PT192H.grib2 2026-04-30 16:32 1.0M
20260430T12Z_MSC_GDPS_WindU_IsbL-0175_LatLon0.15_PT192H.grib2 2026-04-30 16:32 1.0M
20260430T12Z_MSC_GDPS_WindU_IsbL-0200_LatLon0.15_PT192H.grib2 2026-04-30 16:32 837K
20260430T12Z_MSC_GDPS_WindU_IsbL-0225_LatLon0.15_PT192H.grib2 2026-04-30 16:32 852K
20260430T12Z_MSC_GDPS_WindU_IsbL-0250_LatLon0.15_PT192H.grib2 2026-04-30 16:32 855K
20260430T12Z_MSC_GDPS_WindU_IsbL-0275_LatLon0.15_PT192H.grib2 2026-04-30 16:32 885K
20260430T12Z_MSC_GDPS_WindU_IsbL-0300_LatLon0.15_PT192H.grib2 2026-04-30 16:32 877K
20260430T12Z_MSC_GDPS_WindU_IsbL-0350_LatLon0.15_PT192H.grib2 2026-04-30 16:32 892K
20260430T12Z_MSC_GDPS_WindU_IsbL-0400_LatLon0.15_PT192H.grib2 2026-04-30 16:32 896K
20260430T12Z_MSC_GDPS_WindU_IsbL-0450_LatLon0.15_PT192H.grib2 2026-04-30 16:32 898K
20260430T12Z_MSC_GDPS_WindU_IsbL-0500_LatLon0.15_PT192H.grib2 2026-04-30 16:32 1.1M
20260430T12Z_MSC_GDPS_WindU_IsbL-0550_LatLon0.15_PT192H.grib2 2026-04-30 16:32 1.1M
20260430T12Z_MSC_GDPS_WindU_IsbL-0600_LatLon0.15_PT192H.grib2 2026-04-30 16:32 1.2M
20260430T12Z_MSC_GDPS_WindU_IsbL-0650_LatLon0.15_PT192H.grib2 2026-04-30 16:32 1.2M
20260430T12Z_MSC_GDPS_WindU_IsbL-0700_LatLon0.15_PT192H.grib2 2026-04-30 16:32 1.2M
20260430T12Z_MSC_GDPS_WindU_IsbL-0750_LatLon0.15_PT192H.grib2 2026-04-30 16:32 1.3M
20260430T12Z_MSC_GDPS_WindU_IsbL-0800_LatLon0.15_PT192H.grib2 2026-04-30 16:32 1.4M
20260430T12Z_MSC_GDPS_WindU_IsbL-0850_LatLon0.15_PT192H.grib2 2026-04-30 16:32 1.4M
20260430T12Z_MSC_GDPS_WindU_IsbL-0875_LatLon0.15_PT192H.grib2 2026-04-30 16:32 1.5M
20260430T12Z_MSC_GDPS_WindU_IsbL-0900_LatLon0.15_PT192H.grib2 2026-04-30 16:32 1.5M
20260430T12Z_MSC_GDPS_WindU_IsbL-0925_LatLon0.15_PT192H.grib2 2026-04-30 16:32 1.5M
20260430T12Z_MSC_GDPS_WindU_IsbL-0950_LatLon0.15_PT192H.grib2 2026-04-30 16:32 1.4M
20260430T12Z_MSC_GDPS_WindU_IsbL-0970_LatLon0.15_PT192H.grib2 2026-04-30 16:32 1.4M
20260430T12Z_MSC_GDPS_WindU_IsbL-0985_LatLon0.15_PT192H.grib2 2026-04-30 16:32 1.4M
20260430T12Z_MSC_GDPS_WindU_IsbL-1000_LatLon0.15_PT192H.grib2 2026-04-30 16:32 1.4M
20260430T12Z_MSC_GDPS_WindU_IsbL-1015_LatLon0.15_PT192H.grib2 2026-04-30 16:32 1.3M
20260430T12Z_MSC_GDPS_WindV_AGL-10m_LatLon0.15_PT192H.grib2 2026-04-30 16:32 1.6M
20260430T12Z_MSC_GDPS_WindV_AGL-120m_LatLon0.15_PT192H.grib2 2026-04-30 16:32 969K
20260430T12Z_MSC_GDPS_WindV_AGL-40m_LatLon0.15_PT192H.grib2 2026-04-30 16:32 964K
20260430T12Z_MSC_GDPS_WindV_AGL-80m_LatLon0.15_PT192H.grib2 2026-04-30 16:32 969K
20260430T12Z_MSC_GDPS_WindV_IsbL-0001_LatLon0.15_PT192H.grib2 2026-04-30 16:32 715K
20260430T12Z_MSC_GDPS_WindV_IsbL-0005_LatLon0.15_PT192H.grib2 2026-04-30 16:32 860K
20260430T12Z_MSC_GDPS_WindV_IsbL-0010_LatLon0.15_PT192H.grib2 2026-04-30 16:32 792K
20260430T12Z_MSC_GDPS_WindV_IsbL-0020_LatLon0.15_PT192H.grib2 2026-04-30 16:32 843K
20260430T12Z_MSC_GDPS_WindV_IsbL-0030_LatLon0.15_PT192H.grib2 2026-04-30 16:32 846K
20260430T12Z_MSC_GDPS_WindV_IsbL-0050_LatLon0.15_PT192H.grib2 2026-04-30 16:32 890K
20260430T12Z_MSC_GDPS_WindV_IsbL-0100_LatLon0.15_PT192H.grib2 2026-04-30 16:32 1.1M
20260430T12Z_MSC_GDPS_WindV_IsbL-0150_LatLon0.15_PT192H.grib2 2026-04-30 16:32 1.0M
20260430T12Z_MSC_GDPS_WindV_IsbL-0175_LatLon0.15_PT192H.grib2 2026-04-30 16:32 1.0M
20260430T12Z_MSC_GDPS_WindV_IsbL-0200_LatLon0.15_PT192H.grib2 2026-04-30 16:32 834K
20260430T12Z_MSC_GDPS_WindV_IsbL-0225_LatLon0.15_PT192H.grib2 2026-04-30 16:32 844K
20260430T12Z_MSC_GDPS_WindV_IsbL-0250_LatLon0.15_PT192H.grib2 2026-04-30 16:32 847K
20260430T12Z_MSC_GDPS_WindV_IsbL-0275_LatLon0.15_PT192H.grib2 2026-04-30 16:32 875K
20260430T12Z_MSC_GDPS_WindV_IsbL-0300_LatLon0.15_PT192H.grib2 2026-04-30 16:32 866K
20260430T12Z_MSC_GDPS_WindV_IsbL-0350_LatLon0.15_PT192H.grib2 2026-04-30 16:32 881K
20260430T12Z_MSC_GDPS_WindV_IsbL-0400_LatLon0.15_PT192H.grib2 2026-04-30 16:32 1.1M
20260430T12Z_MSC_GDPS_WindV_IsbL-0450_LatLon0.15_PT192H.grib2 2026-04-30 16:32 1.1M
20260430T12Z_MSC_GDPS_WindV_IsbL-0500_LatLon0.15_PT192H.grib2 2026-04-30 16:32 1.1M
20260430T12Z_MSC_GDPS_WindV_IsbL-0550_LatLon0.15_PT192H.grib2 2026-04-30 16:32 1.1M
20260430T12Z_MSC_GDPS_WindV_IsbL-0600_LatLon0.15_PT192H.grib2 2026-04-30 16:32 1.1M
20260430T12Z_MSC_GDPS_WindV_IsbL-0650_LatLon0.15_PT192H.grib2 2026-04-30 16:32 1.2M
20260430T12Z_MSC_GDPS_WindV_IsbL-0700_LatLon0.15_PT192H.grib2 2026-04-30 16:32 1.2M
20260430T12Z_MSC_GDPS_WindV_IsbL-0750_LatLon0.15_PT192H.grib2 2026-04-30 16:32 1.3M
20260430T12Z_MSC_GDPS_WindV_IsbL-0800_LatLon0.15_PT192H.grib2 2026-04-30 16:32 1.3M
20260430T12Z_MSC_GDPS_WindV_IsbL-0850_LatLon0.15_PT192H.grib2 2026-04-30 16:32 1.4M
20260430T12Z_MSC_GDPS_WindV_IsbL-0875_LatLon0.15_PT192H.grib2 2026-04-30 16:32 1.5M
20260430T12Z_MSC_GDPS_WindV_IsbL-0900_LatLon0.15_PT192H.grib2 2026-04-30 16:32 1.5M
20260430T12Z_MSC_GDPS_WindV_IsbL-0925_LatLon0.15_PT192H.grib2 2026-04-30 16:32 1.5M
20260430T12Z_MSC_GDPS_WindV_IsbL-0950_LatLon0.15_PT192H.grib2 2026-04-30 16:32 1.4M
20260430T12Z_MSC_GDPS_WindV_IsbL-0970_LatLon0.15_PT192H.grib2 2026-04-30 16:32 1.4M
20260430T12Z_MSC_GDPS_WindV_IsbL-0985_LatLon0.15_PT192H.grib2 2026-04-30 16:32 1.4M
20260430T12Z_MSC_GDPS_WindV_IsbL-1000_LatLon0.15_PT192H.grib2 2026-04-30 16:32 1.4M
20260430T12Z_MSC_GDPS_WindV_IsbL-1015_LatLon0.15_PT192H.grib2 2026-04-30 16:32 1.6M